Zurück zum Katalog

STARLINK-37250

AktivKommunikationSSO
NORAD 68609·PAYLOAD·🇺🇸 United States

Gestartet Apr 5, 2026 von Vandenberg Space Force Base

Loading…

Nächste Überflüge (nächste 24 Stunden)

TLE

AktuellSource: CelesTrak SupGP

Epoche: Sep 14, 2026, 21:10 UTC

1 68609C 26073H   26257.88243056  .00074968  00000+0  23283-2 0  2575
2 68609  97.2850  95.9030 0001979  92.0450 310.4944 15.33384525    19

Verfolge STARLINK-37250 in Echtzeit mit AllMySat

Download on the App Store